Meteo Giornale » Osservazioni meteo Italia » Bologna-Borgo Panigale

ore: 05:50 - Osservazioni Meteo Bologna-Borgo Panigale
Lat. 44° 32' N Lon. 11° 18' E Alt. 36 metri s.l.m.

coperto_pioggia Europe/Rome

7 °C

Pioviggine Leggera

Temp. 24 Ore

7 °C

16 °C

Est

24 Km/h

Dew point 6 °C

Umidità 93 %

Visibilità  10 Km

Il sole sorge alle ore 06:41

Il sole tramonta alle ore 18:10

Data e Ora Cielo e Fenomeni T °C DP °C Um. % Pres. hPa Vis. km Vento km/h
Oggi h: 05:50 coperto_pioggia Pioviggine Leggera 7 6 93 1025 10 E 24
Oggi h: 05:20 coperto_pioggia Pioggia Debole 7 6 93 1025 10 E 20.3
Oggi h: 04:50 coperto_pioggia Pioggia Debole 7 6 93 1024 10 E 24
Oggi h: 04:20 coperto_pioggia Pioviggine Leggera 8 6 87 1023 10 E 29.6
Oggi h: 03:50 molto_nuvoloso Molto Nuvoloso 8 8 100 1023 10 E/NE 18.5
Oggi h: 03:20 molto_nuvoloso Molto Nuvoloso 9 7 87 1023 10 E/NE 18.5
Oggi h: 02:50 molto_nuvoloso Molto Nuvoloso 9 8 93 1022 10 E/NE 14.8
Oggi h: 02:20 molto_nuvoloso Molto Nuvoloso 9 8 93 1022 10 E 11.1
Oggi h: 01:50 molto_nuvoloso Molto Nuvoloso 9 7 87 1022 10 N 7.4
Oggi h: 01:20 poco_nuvoloso Poco Nuvoloso 9 7 87 1021 10 E 14.8
Oggi h: 00:50 sereno Sereno 8 6 87 1021 10 N 5.5
Oggi h: 00:20 sereno Sereno 8 5 81 1020 10 N 5.5
Ieri h: 23:50 sereno Sereno 7 4 81 1020 10 N 1.8
Ieri h: 23:20 sereno Sereno 8 5 81 1019 10 N 5.5
Ieri h: 22:20 sereno Sereno 8 4 75 1018 10 SE 7.4
Ieri h: 21:50 sereno Sereno 9 5 75 1018 10 E 7.4
Ieri h: 21:20 poco_nuvoloso Poco Nuvoloso 12 6 66 1018 10 E 7.4
Ieri h: 20:50 nuvoloso Nuvoloso 10 5 71 1017 10 E/SE 11.1
Ieri h: 19:50 poco_nuvoloso Poco Nuvoloso 13 6 62 1017 10 E 9.3
Ieri h: 19:20 nuvoloso Nuvoloso 12 5 62 1017 10 E 7.4
Ieri h: 18:50 nuvoloso Nuvoloso 13 5 58 1016 10 N 5.5
Ieri h: 18:20 nuvoloso Nuvoloso 14 5 54 1016 10 N 3.7
Ieri h: 17:50 nuvoloso Nuvoloso 14 5 54 1016 10 N 3.7
Ieri h: 17:20 nuvoloso Nuvoloso 15 5 51 1016 10 N 7.4
Ieri h: 16:50 poco_nuvoloso Poco Nuvoloso 16 5 47 1015 10 N/NE 9.3
Ieri h: 16:20 poco_nuvoloso Poco Nuvoloso 16 5 47 1015 10 NE 7.4
Ieri h: 15:50 nuvoloso Nuvoloso 16 5 47 1015 10 N 5.5
Ieri h: 15:20 molto_nuvoloso Molto Nuvoloso 16 5 47 1015 10 N 7.4
Ieri h: 14:50 molto_nuvoloso Molto Nuvoloso 16 5 47 1015 10 N 5.5
Ieri h: 14:20 nuvoloso Nuvoloso 16 5 47 1015 10 N/NE 9.3
Ieri h: 13:50 molto_nuvoloso Molto Nuvoloso 16 6 51 1016 10 N/NE 7.4
Ieri h: 12:50 molto_nuvoloso Molto Nuvoloso 15 4 47 1016 10 N 9.3
Ieri h: 12:20 nuvoloso Nuvoloso 15 4 47 1016 10 N/NO 7.4
Ieri h: 11:50 nuvoloso Nuvoloso 16 4 44 1016 10 N 3.7
Ieri h: 11:20 molto_nuvoloso Molto Nuvoloso 15 5 51 1016 8 N 3.7
Ieri h: 10:50 molto_nuvoloso Molto Nuvoloso 13 4 54 1017 8 N 5.5
Ieri h: 10:20 molto_nuvoloso Molto Nuvoloso 12 4 57 1017 8 N 5.5
Ieri h: 09:50 molto_nuvoloso Molto Nuvoloso 12 4 57 1017 10 N 3.7
Ieri h: 09:20 molto_nuvoloso Molto Nuvoloso 11 4 61 1017 8 N 3.7
Ieri h: 08:50 molto_nuvoloso Molto Nuvoloso 10 4 66 1017 10 N 3.7
Ieri h: 08:20 molto_nuvoloso Molto Nuvoloso 9 4 70 1017 10 N 5.5
Ieri h: 07:50 molto_nuvoloso Molto Nuvoloso 8 3 70 1016 10 N 3.7
Ieri h: 07:20 nuvoloso Nuvoloso 7 2 70 1016 10 N 1.8
Ieri h: 06:50 molto_nuvoloso Molto Nuvoloso 7 2 70 1016 10 N 5.5
Ieri h: 05:50 nuvoloso Nuvoloso 7 2 70 1016 10 O 7.4